{"data":{"norad_id":62919,"intl_designator":"2025-027N","name":"STARLINK-11457 [DTC]","alt_names":[],"object_type":"PAYLOAD","status":"ACTIVE","operator":null,"country":"US","launch_date":"2025-02-08","launch_site_code":"AFETR","launch_vehicle":null,"mission":null,"orbit_class":"UNKNOWN","rcs_meters":null,"size_class":null,"mass_kg":null,"dimensions":null,"purposes":["comms"],"wikipedia_slug":null,"has_3d_model":false,"image_url":null,"decayed_at":null,"tle_current":{"epoch":"2026-05-24T23:24:18.646848Z","epoch_age_seconds":71125,"freshness":"FRESH","line1":"1 62919U 25027N   26144.97521582  .00310035  00000+0  23202-2 0  9991","line2":"2 62919  42.9988 247.4951 0002589 292.5027  67.5566 15.70947109 75158","mean_motion":15.70947109,"eccentricity":0.0002589,"inclination_deg":42.9988,"raan_deg":247.4951,"arg_perigee_deg":292.5027,"mean_anomaly_deg":67.5566,"bstar":0.0023202,"rev_number":7515,"period_min":91.664448265012,"perigee_km":354.44542440869,"apogee_km":357.93245838114,"semimajor_km":6734.3259413949,"source":"CELESTRAK","updated_at":"2026-05-25T13:38:19.821710Z"}}}